Volver al catálogo

KUIPER-00176

ActivoComunicacionesLEO
NORAD 65788·PAYLOAD·🇺🇸 United States

Lanzado Sep 25, 2025 desde Cape Canaveral Space Force Station

Loading…

Próximos Pases (próximas 24 horas)

TLE

ActualizadoSource: CelesTrak SupGP

Época: Sep 14, 2026, 20:12 UTC

1 65788C 25217AC  26257.84208333  .00000075  00000+0  98007-5 0  2571
2 65788  51.8989 286.6645 0000624  45.6501 355.6809 14.79927601    19

Sigue KUIPER-00176 en tiempo real con AllMySat

Download on the App Store